Location: Agenbach
(47.2667°N, 11.4500°E)
Time: 07:45:01
(UTC+00:00)

STARLINK-38 - Pass Details

Date: 07 June 2020
Orbit: 434 x 435 km, 53.0° (Epoch: 05 July)

Event Time Altitude Azimuth Distance (km) Brightness Sun altitude
Exits shadow 01:12:11 14° 150° (SSE) 1,298 5.2 -15.0°
Drops below altitude 10° 01:15:08 10° 95° (E) 1,544 6.2 -14.8°
Enters shadow 02:09:49 -73° 241° (WSW) 12,667 10.4 -9.5°
Maximum altitude 02:49:39 87° 155° (SSE) 442 3.2 -4.7°
